EN

Hourly Weather Gogaz

Today, 16 May, Sunday

Time Temperature Precipitation Wind Pressure Humidity
00:00 +7°C° 0 mm 2 mps 586 mmHg 75%
01:00 +7°C° 0 mm 2 mps 586 mmHg 74%
02:00 +7°C° 0 mm 2 mps 586 mmHg 74%
03:00 +6°C° 0 mm 2 mps 586 mmHg 73%
04:00 +7°C° 0 mm 2 mps 586 mmHg 71%
05:00 +8°C° 0 mm 2 mps 586 mmHg 69%
06:00 +9°C° 0 mm 2 mps 586 mmHg 67%
07:00 +12°C° 0 mm 2 mps 587 mmHg 55%
08:00 +14°C° 0 mm 2 mps 588 mmHg 44%
09:00 +15°C° 0 mm 2 mps 588 mmHg 33%
10:00 +16°C° 0 mm 2 mps 588 mmHg 32%
11:00 +17°C° 0 mm 2 mps 588 mmHg 31%
12:00 +18°C° 0 mm 3 mps 588 mmHg 30%
13:00 +18°C° 0 mm 3 mps 588 mmHg 31%
14:00 +17°C° 0 mm 3 mps 588 mmHg 33%
15:00 +17°C° 0 mm 3 mps 588 mmHg 34%
16:00 +16°C° 0 mm 2 mps 587 mmHg 39%
17:00 +15°C° 0 mm 2 mps 587 mmHg 45%
18:00 +14°C° 0 mm 2 mps 586 mmHg 51%
19:00 +12°C° 0 mm 2 mps 586 mmHg 50%
20:00 +9°C° 0 mm 3 mps 585 mmHg 49%
21:00 +7°C° 0 mm 3 mps 585 mmHg 49%
22:00 +7°C° 0 mm 3 mps 585 mmHg 47%
23:00 +6°C° 0 mm 4 mps 584 mmHg 46%

Tomorrow, 17 May, Monday

Time Temperature Precipitation Wind Pressure Humidity
00:00 +6°C° 0 mm 4 mps 584 mmHg 45%
01:00 +6°C° 0 mm 4 mps 584 mmHg 44%
02:00 +6°C° 0 mm 4 mps 584 mmHg 43%
03:00 +6°C° 0 mm 4 mps 584 mmHg 43%
04:00 +7°C° 0 mm 4 mps 584 mmHg 46%
05:00 +9°C° 0 mm 3 mps 584 mmHg 49%
06:00 +10°C° 0 mm 3 mps 585 mmHg 51%
07:00 +13°C° 0 mm 3 mps 585 mmHg 45%
08:00 +16°C° 0 mm 3 mps 586 mmHg 38%
09:00 +19°C° 0 mm 2 mps 587 mmHg 31%
10:00 +19°C° 0 mm 2 mps 587 mmHg 30%
11:00 +20°C° 0 mm 3 mps 587 mmHg 29%
12:00 +20°C° 0 mm 3 mps 587 mmHg 28%
13:00 +20°C° 0 mm 2 mps 587 mmHg 29%
14:00 +20°C° 0 mm 2 mps 587 mmHg 29%
15:00 +20°C° 0 mm 2 mps 587 mmHg 30%
16:00 +19°C° 0 mm 2 mps 587 mmHg 36%
17:00 +18°C° 0 mm 2 mps 586 mmHg 43%
18:00 +18°C° 0 mm 1 mps 586 mmHg 50%
19:00 +15°C° 0 mm 2 mps 586 mmHg 52%
20:00 +13°C° 0 mm 3 mps 586 mmHg 55%
21:00 +11°C° 0 mm 4 mps 585 mmHg 57%
22:00 +11°C° 0 mm 3 mps 585 mmHg 55%
23:00 +11°C° 0 mm 3 mps 584 mmHg 52%

Day after tomorrow, 18 May, Tuesday

Time Temperature Precipitation Wind Pressure Humidity
00:00 +11°C° 0 mm 3 mps 584 mmHg 49%
01:00 +11°C° 0 mm 3 mps 583 mmHg 49%
02:00 +10°C° 0 mm 3 mps 583 mmHg 48%
03:00 +10°C° 0 mm 3 mps 582 mmHg 47%
04:00 +10°C° 0 mm 2 mps 583 mmHg 51%
05:00 +12°C° 0 mm 2 mps 583 mmHg 54%
06:00 +12°C° 0 mm 1 mps 583 mmHg 58%
07:00 +13°C° 0.1 mm 2 mps 584 mmHg 56%
08:00 +14°C° 0.1 mm 2 mps 584 mmHg 54%
09:00 +14°C° 0.1 mm 3 mps 584 mmHg 52%
10:00 +14°C° 0.3 mm 3 mps 585 mmHg 53%
11:00 +14°C° 0.3 mm 3 mps 585 mmHg 54%
12:00 +14°C° 0.3 mm 4 mps 585 mmHg 55%
13:00 +14°C° 0.4 mm 3 mps 585 mmHg 57%
14:00 +13°C° 0.4 mm 3 mps 585 mmHg 59%
15:00 +13°C° 0.4 mm 3 mps 585 mmHg 61%
16:00 +12°C° 0.3 mm 3 mps 585 mmHg 66%
17:00 +12°C° 0.3 mm 2 mps 585 mmHg 71%
18:00 +10°C° 0.3 mm 2 mps 585 mmHg 76%
19:00 +9°C° 0 mm 2 mps 585 mmHg 74%
20:00 +9°C° 0 mm 1 mps 585 mmHg 72%
21:00 +9°C° 0 mm 1 mps 584 mmHg 70%
22:00 +8°C° 0 mm 1 mps 584 mmHg 70%
23:00 +7°C° 0 mm 2 mps 584 mmHg 69%

19 May, Wednesday

Time Temperature Precipitation Wind Pressure Humidity
00:00 +7°C° 0 mm 2 mps 584 mmHg 69%
01:00 +6°C° 0 mm 2 mps 584 mmHg 68%
02:00 +6°C° 0 mm 2 mps 584 mmHg 67%
03:00 +6°C° 0 mm 2 mps 584 mmHg 66%
04:00 +7°C° 0 mm 2 mps 584 mmHg 62%
05:00 +8°C° 0 mm 2 mps 585 mmHg 58%
06:00 +9°C° 0 mm 2 mps 585 mmHg 55%
07:00 +10°C° 0 mm 2 mps 586 mmHg 51%
08:00 +13°C° 0 mm 2 mps 586 mmHg 47%
09:00 +15°C° 0 mm 2 mps 587 mmHg 44%
10:00 +14°C° 0 mm 3 mps 587 mmHg 44%
11:00 +16°C° 0 mm 3 mps 587 mmHg 45%
12:00 +16°C° 0 mm 3 mps 588 mmHg 46%
13:00 +16°C° 0.2 mm 3 mps 588 mmHg 50%
14:00 +16°C° 0.2 mm 3 mps 588 mmHg 54%
15:00 +15°C° 0.2 mm 2 mps 588 mmHg 59%
16:00 +14°C° 0.1 mm 2 mps 588 mmHg 64%
17:00 +14°C° 0.1 mm 2 mps 588 mmHg 70%
18:00 +13°C° 0.1 mm 1 mps 588 mmHg 75%
19:00 +12°C° 0 mm 1 mps 588 mmHg 76%
20:00 +10°C° 0 mm 1 mps 588 mmHg 76%
21:00 +9°C° 0 mm 1 mps 588 mmHg 77%
22:00 +9°C° 0 mm 1 mps 587 mmHg 75%
23:00 +9°C° 0 mm 1 mps 587 mmHg 72%

20 May, Thursday

Time Temperature Precipitation Wind Pressure Humidity
00:00 +8°C° 0 mm 1 mps 587 mmHg 70%
01:00 +8°C° 0 mm 1 mps 587 mmHg 71%
02:00 +8°C° 0 mm 1 mps 587 mmHg 73%
03:00 +8°C° 0 mm 1 mps 587 mmHg 74%
04:00 +9°C° 0 mm 1 mps 588 mmHg 72%
05:00 +10°C° 0 mm 1 mps 588 mmHg 71%
06:00 +11°C° 0 mm 1 mps 589 mmHg 69%
07:00 +12°C° 0 mm 1 mps 589 mmHg 65%
08:00 +14°C° 0 mm 2 mps 590 mmHg 60%
09:00 +16°C° 0 mm 2 mps 590 mmHg 56%
10:00 +16°C° 0 mm 3 mps 590 mmHg 55%
11:00 +17°C° 0 mm 3 mps 590 mmHg 55%
12:00 +18°C° 0 mm 3 mps 591 mmHg 55%
13:00 +18°C° 0 mm 3 mps 590 mmHg 55%
14:00 +18°C° 0 mm 3 mps 590 mmHg 55%
15:00 +18°C° 0 mm 3 mps 590 mmHg 55%
16:00 +17°C° 0 mm 2 mps 590 mmHg 59%
17:00 +16°C° 0 mm 2 mps 589 mmHg 64%
18:00 +15°C° 0 mm 2 mps 589 mmHg 68%
19:00 +14°C° 0 mm 2 mps 589 mmHg 70%
20:00 +12°C° 0 mm 2 mps 588 mmHg 72%
21:00 +10°C° 0 mm 3 mps 588 mmHg 74%
22:00 +10°C° 0 mm 3 mps 588 mmHg 71%
23:00 +10°C° 0 mm 3 mps 588 mmHg 69%

21 May, Friday

Time Temperature Precipitation Wind Pressure Humidity
00:00 +10°C° 0 mm 3 mps 587 mmHg 67%
01:00 +10°C° 0 mm 3 mps 587 mmHg 64%
02:00 +10°C° 0 mm 3 mps 587 mmHg 60%
03:00 +10°C° 0 mm 3 mps 587 mmHg 57%
04:00 +11°C° 0 mm 3 mps 588 mmHg 56%
05:00 +13°C° 0 mm 2 mps 588 mmHg 55%
06:00 +14°C° 0 mm 2 mps 589 mmHg 54%
07:00 +16°C° 0 mm 2 mps 589 mmHg 49%
08:00 +18°C° 0 mm 2 mps 590 mmHg 43%
09:00 +20°C° 0 mm 2 mps 591 mmHg 37%
10:00 +21°C° 0 mm 2 mps 591 mmHg 37%
11:00 +21°C° 0 mm 2 mps 591 mmHg 37%
12:00 +22°C° 0 mm 3 mps 591 mmHg 37%
13:00 +23°C° 0.1 mm 2 mps 591 mmHg 39%
14:00 +21°C° 0.1 mm 2 mps 591 mmHg 41%
15:00 +21°C° 0.1 mm 2 mps 591 mmHg 43%
16:00 +20°C° 0.1 mm 2 mps 591 mmHg 49%
17:00 +20°C° 0.1 mm 1 mps 590 mmHg 56%
18:00 +19°C° 0.1 mm 1 mps 590 mmHg 62%
19:00 +16°C° 0 mm 1 mps 590 mmHg 63%
20:00 +15°C° 0 mm 2 mps 590 mmHg 64%
21:00 +14°C° 0 mm 2 mps 589 mmHg 65%
22:00 +13°C° 0 mm 2 mps 589 mmHg 64%
23:00 +13°C° 0 mm 2 mps 589 mmHg 62%
Show more